Wheeler AAF, HI

1:47 AM HST on May 25, 2017 (GMT -1000)
Wheeler Army Air Field

Weather History for PHHI - December, 2012

Change the Weather History Date:

Saturday, December 1, 2012

  Actual Average Record
Temperature  
Mean Temperature 70 °F -  
Max Temperature 79 °F 75 °F 80 °F (2005)
Min Temperature 60 °F 65 °F 60 °F (2000)
Cooling Degree Days 4    
Growing Degree Days 20 (Base 50)    
Moisture  
Dew Point 62 °F    
Average Humidity 76    
Maximum Humidity 93    
Minimum Humidity 54    
Precipitation  
Precipitation 0.00 in - - ()
Sea Level Pressure  
Sea Level Pressure 30.01 in    
Wind  
Wind Speed 3 mph (ESE)    
Max Wind Speed 9 mph    
Max Gust Speed -    
Visibility 10 miles    
Events      
Averages and records for this station are not official NWS values.
T = Trace of Precipitation, MM = Missing Value Source: NWS Daily Summary

Daily Weather History Graph

Daily Weather History Graph

Search for Another Location

Airport or City:

Trip Planner

Search our weather history database for the weather conditions in past years. The results will help you decide how hot, cold, wet, or windy it might be!

Date:

Astronomy

Dec. 01, 2012 Rise Set
Actual Time 6:54 AM HST 5:48 PM HST
Civil Twilight 6:29 AM HST 6:12 PM HST
Nautical Twilight 6:02 AM HST 6:40 PM HST
Astronomical Twilight 5:35 AM HST 7:07 PM HST
Moon 8:42 PM HST (12/1) 9:19 AM HST (12/1)
Length of Visible Light 11h 42m
Length of Day
10h 54m
Waning Gibbous, 90% of the Moon is Illuminated
Dec 1
Waning Gibbous
Dec 6
Last Quarter
Dec 12
New
Dec 19
First Quarter
Dec 28
Full

Hourly Weather History & Observations

Time (HST) Temp. Dew Point Humidity Pressure Visibility Wind Dir Wind Speed Gust Speed Precip Events Conditions
12:55 AM 63.9 °F 60.3 °F 88% 30.03 in 10.0 mi NNW 3.5 mph - N/A   Clear
1:55 AM 63.1 °F 59.4 °F 87% 30.01 in 10.0 mi Calm Calm - N/A   Clear
2:55 AM 64.4 °F 60.3 °F 86% 29.99 in 10.0 mi Calm Calm - N/A   Clear
3:55 AM 63.9 °F 60.6 °F 89% 29.99 in 10.0 mi East 3.5 mph - N/A   Clear
4:55 AM 64.4 °F 61.5 °F 90% 29.99 in 10.0 mi Calm Calm - N/A   Clear
5:55 AM 62.6 °F 60.4 °F 93% 30.00 in 10.0 mi Calm Calm - N/A   Clear
6:55 AM 60.8 °F 58.5 °F 92% 30.02 in 10.0 mi Calm Calm - N/A   Clear
7:55 AM 63.7 °F 61.7 °F 93% 30.02 in 10.0 mi Calm Calm - N/A   Clear
8:55 AM 72.0 °F 63.3 °F 74% 30.04 in 10.0 mi Variable 4.6 mph - N/A   Partly Cloudy
9:55 AM 73.6 °F 62.1 °F 67% 30.05 in 10.0 mi Variable 3.5 mph - N/A   Mostly Cloudy
10:55 AM 76.8 °F 60.6 °F 57% 30.03 in 10.0 mi SE 8.1 mph - N/A   Clear
11:55 AM 78.1 °F 60.4 °F 54% 30.00 in 10.0 mi ESE 9.2 mph - N/A   Clear
12:55 PM 79.0 °F 61.5 °F 55% 29.99 in 10.0 mi SSE 6.9 mph - N/A   Clear
1:55 PM 79.7 °F 62.1 °F 55% 29.95 in 10.0 mi ESE 8.1 mph - N/A   Clear
2:55 PM 79.2 °F 62.4 °F 56% 29.95 in 10.0 mi Variable 6.9 mph - N/A   Partly Cloudy
3:55 PM 75.7 °F 62.1 °F 62% 29.97 in 10.0 mi Calm Calm - N/A   Overcast
4:20 PM 75.2 °F 62.6 °F 65% 29.97 in 10.0 mi Variable 4.6 mph - N/A   Overcast
4:55 PM 74.1 °F 63.9 °F 70% 29.98 in 10.0 mi SE 4.6 mph - N/A   Overcast
5:52 PM 73.4 °F 64.4 °F 73% 30.00 in 10.0 mi SSE 3.5 mph - N/A   Mostly Cloudy
5:55 PM 72.9 °F 64.6 °F 75% 30.00 in 10.0 mi Calm Calm - N/A   Mostly Cloudy
6:55 PM 71.2 °F 64.9 °F 80% 30.03 in 10.0 mi Calm Calm - N/A   Partly Cloudy
7:55 PM 70.3 °F 65.1 °F 83% 30.04 in 10.0 mi Calm Calm - N/A   Clear
8:55 PM 69.6 °F 64.2 °F 83% 30.03 in 10.0 mi Calm Calm - N/A   Clear
9:55 PM 68.5 °F 63.7 °F 84% 30.03 in 10.0 mi Calm Calm - N/A   Partly Cloudy
10:55 PM 68.5 °F 63.9 °F 85% 30.04 in 10.0 mi ENE 3.5 mph - N/A   Clear
11:55 PM 67.8 °F 63.5 °F 86% 30.02 in 10.0 mi Calm Calm - N/A   Partly Cloudy